North Bend, OR

4:13 AM PST on December 07, 2016 (GMT -0800)
North Bend Municipal

Weather History for KOTH - August, 2012

Change the Weather History Date:

Tuesday, August 21, 2012

  Actual Average Record
Temperature  
Mean Temperature 62 °F 59 °F  
Max Temperature 68 °F 66 °F 77 °F (1917)
Min Temperature 55 °F 53 °F 42 °F (1930)
Degree Days  
Heating Degree Days 3 6  
Month to date heating degree days 121 126  
Since 1 June heating degree days 527 590  
Since 1 July heating degree days 275 323  
Cooling Degree Days 0 0  
Month to date cooling degree days 0 0  
Year to date cooling degree days 0 0  
Since 1 June cooling degree days 0 0  
Growing Degree Days 12 (Base 50)    
Moisture  
Dew Point 58 °F    
Average Humidity 88    
Maximum Humidity 100    
Minimum Humidity 73    
Precipitation  
Precipitation 0.00 in 0.03 in 0.78 in (1971)
Month to date precipitation 0.00 0.35  
Year to date precipitation 28.80 36.97  
Sea Level Pressure  
Sea Level Pressure 30.04 in    
Wind  
Wind Speed 9 mph (NNW)    
Max Wind Speed 20 mph    
Max Gust Speed 27 mph    
Visibility 10 miles    
Events      
T = Trace of Precipitation, MM = Missing Value Source: NWS Daily Summary

Daily Weather History Graph

Daily Weather History Graph

Search for Another Location

Airport or City:

Trip Planner

Search our weather history database for the weather conditions in past years. The results will help you decide how hot, cold, wet, or windy it might be!

Date:

Astronomy

Aug. 21, 2012 Rise Set
Actual Time 6:29 AM PDT 8:09 PM PDT
Civil Twilight 5:59 AM PDT 8:39 PM PDT
Nautical Twilight 5:22 AM PDT 9:16 PM PDT
Astronomical Twilight 4:42 AM PDT 9:55 PM PDT
Moon 11:17 AM PDT (8/21) 10:02 PM PDT (8/21)
Length of Visible Light 14h 40m
Length of Day
13h 40m
Waxing Crescent, 20% of the Moon is Illuminated
Aug 21
Waxing Crescent
Aug 24
First Quarter
Aug 31
Full
Sep 8
Last Quarter
Sep 15
New

Hourly Weather History & Observations

Time (PDT) Temp. Dew Point Humidity Pressure Visibility Wind Dir Wind Speed Gust Speed Precip Events Conditions
12:15 AM 59.0 °F 59.0 °F 100% 30.02 in 10.0 mi WNW 5.8 mph - N/A   Overcast
12:35 AM 57.2 °F 57.2 °F 100% 30.03 in 10.0 mi NW 4.6 mph - N/A   Overcast
12:55 AM 57.2 °F 57.2 °F 100% 30.03 in 9.0 mi NW 3.5 mph - N/A   Overcast
1:15 AM 57.2 °F 57.2 °F 100% 30.02 in 10.0 mi WNW 4.6 mph - N/A   Overcast
1:35 AM 57.2 °F 55.4 °F 94% 30.02 in 9.0 mi West 4.6 mph - N/A   Overcast
1:55 AM 57.2 °F 55.4 °F 94% 30.02 in 6.0 mi West 3.5 mph - N/A   Overcast
2:15 AM 57.2 °F 57.2 °F 100% 30.02 in 7.0 mi West 3.5 mph - N/A   Overcast
2:35 AM 57.2 °F 57.2 °F 100% 30.02 in 8.0 mi Calm Calm - N/A   Overcast
2:55 AM 59.0 °F 59.0 °F 100% 30.02 in 9.0 mi North 3.5 mph - N/A   Overcast
3:15 AM 59.0 °F 59.0 °F 100% 30.02 in 10.0 mi Calm Calm - N/A   Overcast
3:35 AM 59.0 °F 59.0 °F 100% 30.02 in 10.0 mi NNW 3.5 mph - N/A   Overcast
3:55 AM 59.0 °F 57.2 °F 94% 30.02 in 10.0 mi NW 4.6 mph - N/A   Overcast
4:15 AM 57.2 °F 57.2 °F 100% 30.02 in 3.0 mi NW 4.6 mph - N/A   Overcast
4:35 AM 57.2 °F 57.2 °F 100% 30.02 in 6.0 mi NNW 4.6 mph - N/A   Overcast
4:55 AM 57.2 °F 57.2 °F 100% 30.02 in 9.0 mi WNW 4.6 mph - N/A   Overcast
5:15 AM 57.2 °F 57.2 °F 100% 30.02 in 3.0 mi WNW 5.8 mph - N/A   Overcast
5:35 AM 57.2 °F 57.2 °F 100% 30.02 in 8.0 mi Calm Calm - N/A   Overcast
5:55 AM 57.2 °F 57.2 °F 100% 30.02 in 10.0 mi Calm Calm - N/A   Overcast
6:15 AM 57.2 °F 57.2 °F 100% 30.02 in 10.0 mi Calm Calm - N/A   Overcast
6:35 AM 57.2 °F 57.2 °F 100% 30.02 in 10.0 mi Calm Calm - N/A   Overcast
6:55 AM 59.0 °F 59.0 °F 100% 30.02 in 10.0 mi Calm Calm - N/A   Overcast
7:15 AM 59.0 °F 57.2 °F 94% 30.02 in 10.0 mi Calm Calm - N/A   Overcast
7:35 AM 59.0 °F 59.0 °F 100% 30.03 in 10.0 mi Calm Calm - N/A   Overcast
7:55 AM 59.0 °F 59.0 °F 100% 30.03 in 10.0 mi Calm Calm - N/A   Overcast
8:15 AM 59.0 °F 59.0 °F 100% 30.04 in 10.0 mi Calm Calm - N/A   Overcast
8:35 AM 60.8 °F 59.0 °F 94% 30.04 in 10.0 mi West 3.5 mph - N/A   Overcast
8:55 AM 60.8 °F 59.0 °F 94% 30.04 in 10.0 mi West 4.6 mph - N/A   Overcast
9:15 AM 60.8 °F 59.0 °F 94% 30.04 in 10.0 mi WNW 3.5 mph - N/A   Mostly Cloudy
9:35 AM 64.4 °F 59.0 °F 83% 30.04 in 10.0 mi NW 4.6 mph - N/A   Mostly Cloudy
9:55 AM 64.4 °F 59.0 °F 83% 30.04 in 10.0 mi North 6.9 mph - N/A   Mostly Cloudy
10:15 AM 64.4 °F 59.0 °F 83% 30.05 in 10.0 mi NNW 8.1 mph - N/A   Partly Cloudy
10:35 AM 66.2 °F 57.2 °F 73% 30.05 in 10.0 mi NNW 8.1 mph - N/A   Partly Cloudy
10:55 AM 66.2 °F 57.2 °F 73% 30.05 in 10.0 mi NNW 10.4 mph - N/A   Clear
11:15 AM 66.2 °F 57.2 °F 73% 30.05 in 10.0 mi NNW 10.4 mph - N/A   Clear
11:35 AM 66.2 °F 57.2 °F 73% 30.05 in 10.0 mi NNW 10.4 mph - N/A   Clear
11:55 AM 66.2 °F 57.2 °F 73% 30.05 in 10.0 mi North 13.8 mph - N/A   Clear
12:15 PM 68.0 °F 57.2 °F 68% 30.05 in 10.0 mi NNW 15.0 mph 19.6 mph N/A   Clear
12:35 PM 66.2 °F 57.2 °F 73% 30.05 in 10.0 mi NNW 13.8 mph 19.6 mph N/A   Clear
12:55 PM 66.2 °F 57.2 °F 73% 30.05 in 10.0 mi NNW 12.7 mph - N/A   Clear
1:15 PM 66.2 °F 59.0 °F 78% 30.05 in 10.0 mi NNW 13.8 mph - N/A   Clear
1:35 PM 66.2 °F 59.0 °F 78% 30.05 in 10.0 mi NNW 15.0 mph - N/A   Clear
1:55 PM 66.2 °F 59.0 °F 78% 30.05 in 10.0 mi NNW 16.1 mph 20.7 mph N/A   Partly Cloudy
2:15 PM 66.2 °F 59.0 °F 78% 30.05 in 10.0 mi NNW 15.0 mph - N/A   Partly Cloudy
2:35 PM 66.2 °F 59.0 °F 78% 30.05 in 10.0 mi North 13.8 mph - N/A   Partly Cloudy
2:55 PM 66.2 °F 59.0 °F 78% 30.05 in 10.0 mi North 18.4 mph 23.0 mph N/A   Partly Cloudy
3:15 PM 66.2 °F 59.0 °F 78% 30.05 in 10.0 mi North 17.3 mph 21.9 mph N/A   Clear
3:35 PM 66.2 °F 59.0 °F 78% 30.04 in 10.0 mi North 19.6 mph 25.3 mph N/A   Clear
3:55 PM 66.2 °F 57.2 °F 73% 30.04 in 10.0 mi North 19.6 mph 26.5 mph N/A   Clear
4:15 PM 66.2 °F 57.2 °F 73% 30.04 in 10.0 mi North 19.6 mph 24.2 mph N/A   Clear
4:35 PM 66.2 °F 57.2 °F 73% 30.04 in 10.0 mi North 18.4 mph 28.8 mph N/A   Clear
4:55 PM 66.2 °F 57.2 °F 73% 30.05 in 10.0 mi North 16.1 mph - N/A   Clear
5:15 PM 66.2 °F 57.2 °F 73% 30.05 in 10.0 mi North 20.7 mph - N/A   Clear
5:35 PM 64.4 °F 57.2 °F 77% 30.05 in 10.0 mi North 18.4 mph 23.0 mph N/A   Clear
5:55 PM 64.4 °F 57.2 °F 77% 30.04 in 10.0 mi North 16.1 mph 21.9 mph N/A   Clear
6:15 PM 64.4 °F 57.2 °F 77% 30.04 in 10.0 mi North 16.1 mph 21.9 mph N/A   Clear
6:35 PM 64.4 °F 57.2 °F 77% 30.04 in 10.0 mi North 16.1 mph 23.0 mph N/A   Clear
6:55 PM 62.6 °F 57.2 °F 82% 30.04 in 10.0 mi North 15.0 mph - N/A   Clear
7:15 PM 62.6 °F 57.2 °F 82% 30.04 in 10.0 mi North 13.8 mph - N/A   Clear
7:35 PM 62.6 °F 57.2 °F 82% 30.04 in 10.0 mi North 15.0 mph 21.9 mph N/A   Clear
7:55 PM 62.6 °F 57.2 °F 82% 30.04 in 10.0 mi North 15.0 mph 20.7 mph N/A   Clear
8:15 PM 60.8 °F 57.2 °F 88% 30.04 in 10.0 mi North 11.5 mph - N/A   Clear
8:35 PM 60.8 °F 57.2 °F 88% 30.04 in 10.0 mi North 9.2 mph - N/A   Clear
8:55 PM 60.8 °F 57.2 °F 88% 30.05 in 10.0 mi North 8.1 mph - N/A   Scattered Clouds
9:15 PM 60.8 °F 57.2 °F 88% 30.06 in 10.0 mi North 11.5 mph - N/A   Partly Cloudy
9:35 PM 59.0 °F 57.2 °F 94% 30.06 in 10.0 mi North 6.9 mph - N/A   Clear
9:55 PM 59.0 °F 57.2 °F 94% 30.06 in 10.0 mi North 5.8 mph - N/A   Clear
10:15 PM 59.0 °F 57.2 °F 94% 30.06 in 10.0 mi North 10.4 mph - N/A   Scattered Clouds
10:35 PM 59.0 °F 57.2 °F 94% 30.05 in 10.0 mi NNW 4.6 mph - N/A   Partly Cloudy
10:55 PM 59.0 °F 57.2 °F 94% 30.05 in 10.0 mi North 4.6 mph - N/A   Clear
11:15 PM 57.2 °F 57.2 °F 100% 30.05 in 10.0 mi North 4.6 mph - N/A   Clear
11:35 PM 57.2 °F 57.2 °F 100% 30.05 in 10.0 mi NNW 4.6 mph - N/A   Clear
11:55 PM 57.2 °F 57.2 °F 100% 30.05 in 10.0 mi North 4.6 mph - N/A   Clear